Weather Roundup
Issued by NWS Chicago, IL

Home | Current Version | Previous Version | Graphics & Text | Print | Product List | Glossary On
Versions: 1 2 3 4 5 6 7 8 9 10 11 12 13 14 15 16 17 18 19 20 21 22 23 24 25 26 27 28 29 30 31 32 33 34 35 36 37 38 39 40 41 42 43 44 45 46 47 48 49 50
000
NZUS59 KLOT 221806
HRRLOT

CHICAGO AREA WEATHER ROUNDUP
NATIONAL WEATHER SERVICE CHICAGO/ROMEOVILLE IL
100 PM CDT MON SEP 22 2014

NOTE: "FAIR" INDICATES FEW OR NO CLOUDS BELOW 12,000 FEET WITH NO
SIGNIFICANT WEATHER AND/OR OBSTRUCTIONS TO VISIBILITY.

* THESE STATIONS ARE NOT UNDER NWS QUALITY CONTROL. THEY ALSO MAY NOT
  REPORT WEATHER SUCH AS PRECIPITATION OR FOG.

ILZ005-006-012>014-019>023-221900-
NORTHEAST ILLINOIS

CITY           SKY/WX    TMP DP  RH WIND       PRES   REMARKS
OHARE          MOSUNNY   58  40  51 CALM      30.28F
6HR MIN TEMP:  47; 6HR MAX TEMP:  58;

MIDWAY         MOSUNNY   65  44  46 NW5       30.28F
6HR MIN TEMP:  48; 6HR MAX TEMP:  65;

AURORA         SUNNY     63  40  42 NE3       30.29F
6HR MIN TEMP:  39; 6HR MAX TEMP:  63;

LANSING*       SUNNY     61  41  48 N3        30.29S
JOLIET*        SUNNY     62  41  45 W6        30.29F
WAUKEGAN       SUNNY     61  43  51 CALM      30.27F
6HR MIN TEMP:  42; 6HR MAX TEMP:  61;

DUPAGE AIRPORT SUNNY     65  41  41 N8        30.28F
6HR MIN TEMP:  41; 6HR MAX TEMP:  65;

WHEELING       SUNNY     64  41  42 CALM      30.29F
6HR MIN TEMP:  44; 6HR MAX TEMP:  65;

KANKAKEE*      SUNNY     63  45  51 NW5       30.30R
MORRIS*        SUNNY     65  42  43 CALM      30.28F
LEWIS AIRPORT* SUNNY     62  42  47 N6        30.29F
NORTHERLY IS     N/A     57  45  64 E6          N/A
$$

WIZ051-052-058>065-066-070>072-221900-
SOUTHEAST WISCONSIN

CITY           SKY/WX    TMP DP  RH WIND       PRES   REMARKS
MILWAUKEE      MOSUNNY   64  42  44 NW6       30.26F
6HR MIN TEMP:  42; 6HR MAX TEMP:  64;

KENOSHA*       SUNNY     63  44  50 VRB7      30.27F
RACINE*        SUNNY     63  43  48 VRB3      30.28F
BURLINGTON     SUNNY     63  40  43 NW6       30.27S
WAUKESHA       SUNNY     63  43  48 W7        30.27F
WEST BEND      MOSUNNY   63  43  48 NW9       30.25S
$$

INZ001>003-010>013-019-020-221900-
NORTHWEST INDIANA

CITY           SKY/WX    TMP DP  RH WIND       PRES   REMARKS
GARY*          MOSUNNY   61  48  63 N7        30.30S
MICHIGAN CITY* NOT AVBL
RENSSELAER*    NOT AVBL
VALPARAISO     SUNNY     62  44  51 N8        30.28F
$$

LMZ740>746-221900-
SOUTHERN LAKE MICHIGAN

STATION/POSITION TIME  SKY/WX   TEMP WIND        PRES    VSBY
                                AIR  DIR/SP/G
                 (UTC)          (F)  (DEG/KT/KT) (MB)    (MI)
HARRISON CRIB    1800            55   50/  3/  4   N/A
BURNHAM HARBOR   1800            57   60/  4/  8   N/A
CALUMET HARBOR   1800            55   60/  6/  7 1024.3F
BURNS HARBOR     NOT AVBL
MICHIGAN CITY    1800            58  330/  8/ 11   N/A
$$

ABBREVIATIONS USED IN REMARKS
   TC - TEMPERATURE IN CELSIUS
  WCI - WIND CHILL INDEX
   HX - HEAT INDEX
  VSB - VISIBILITY
$$


USA.gov is the U.S. government's official web portal to all federal, state and local government web resources and services.